SCP
0 0 0 0 0 0 0 0 0 0 0 0 0 0 0 0 0 0 0 0 0 0 0 0 0 0 0 0 0 0 0 0 0 0 0 0 0 0 0 0 0 0 0 0 0 0 0 0 0
0 0 0 0 0 0 0 0 0 0 0 0 0 0 0 0 0 0 0 0 0 0 0 0 0 0 0 0 0 0 0 0 0 0 0 0 0 0 0 0 0 0 0 0 0 0 0 0 0
0 0 0 0 0 0 0 0 0 0 0 0 0 0 0 0 0 0 0 0 0 0 0 0 0 0 0 0 0 0 0 0 0 0 0 0 0 0 0 0 0 0 0 0 0 0 0 0 0
0 0 0 0 0 0 0 0 0 0 0 0 0 0 0 0 0 0 0 0 0 0 0 0 0 0 0 0 0 0 0 0 0 0 0 0 0 0 0 0 0 0 0 0 0 0 0 0 0
0 0 0 0 0 0 0 0 0 0 0 0 0 0 0 0 0 0 0 0 0 0 0 0 0 0 0 0 0 0 0 0 0 0 0 0 0 0 0 0 0 0 0 0 0 0 0 0 0
0 0 0 0 0 0 0 0 0 0 0 0 0 0 0 0 0 0 0 0 0 0 0 0 0 0 0 0 0 0 0 0 0 0 0 0 0 0 0 0 0 0 0 0 0 0 0 0 0
0 0 0 0 0 0 0 0 0 0 0 0 0 0 0 0 0 0 0 0 0 0 0 0 0 0 0 0 0 0 0 0 0 0 0 0 0 0 0 0 0 0 0 0 0 0 0 0 0
0 0 0 0 0 0 0 0 0 0 0 0 0 0 0 0 0 0 0 0 0 0 0 0 0 0 0 0 0 0 0 0 0 0 0 0 0 0 0 0 0 0 0 0 0 0 0 0 0
0 0 0 0 0 0 0 0 0 0 0 0 0 0 0 0 0 0 0 0 0 0 0 0 0 0 0 0 0 0 0 0 0 0 0 0 0 0 0 0 0 0 0 0 0 0 0 0 0
0 0 0 0 0 0 0 0 0 0 0 0 0 0 0 0 0 0 0 0 0 0 0 0 0 0 0 0 0 0 0 0 0 0 0 0 0 0 0 0 0 0 0 0 0 0 0 0 0
0 0 0 0 0 0 0 0 0 0 0 0 0 0 0 0 0 0 0 0 0 0 0 0 0 0 0 0 0 0 0 0 0 0 0 0 0 0 0 0 0 0 0 0 0 0 0 0 0
0 0 0 0 0 0 0 0 0 0 0 0 0 0 0 0 0 0 0 0 0 0 0 0 0 0 0 0 0 0 0 0 0 0 0 0 0 0 0 0 0 0 0 0 0 0 0 0 0
0 0 0 0 0 0 0 0 0 0 0 0 0 0 0 0 0 0 0 0 0 0 0 0 0 0 0 0 0 0 0 0 0 0 0 0 0 0 0 0 0 0 0 0 0 0 0 0 0
0 0 0 0 0 0 0 0 0 0 0 0 0 0 0 0 0 0 0 0 0 0 0 0 0 0 0 0 0 0 0 0 0 0 0 0 0 0 0 0 0 0 0 0 0 0 0 0 0
0 0 0 0 0 0 0 0 0 0 0 0 0 0 0 0 0 0 0 0 0 0 0 0 0 0 0 0 0 0 0 0 0 0 0 0 0 0 0 0 0 0 0 0 0 0 0 0 0
0 0 0 0 0 0 0 0 0 0 0 0 0 0 0 0 0 0 0 0 0 0 0 0 0 0 0 0 0 0 0 0 0 0 0 0 0 0 0 0 0 0 0 0 0 0 0 0 0
0 0 0 0 0 0 0 0 0 0 0 0 0 0 0 0 0 0 0 0 0 0 0 0 0 0 0 0 0 0 0 0 0 0 0 0 0 0 0 0 0 0 0 0 0 0 0 0 0
0 0 0 0 0 0 0 0 0 0 0 0 0 0 0 0 0 0 0 0 0 0 0 0 0 0 0 0 0 0 0 0 0 0 0 0 0 0 0 0 0 0 0 0 0 0 0 0 0
0 0 0 0 0 0 0 0 0 0 0 0 0 0 0 0 0 0 0 0 0 0 0 0 0 0 0 0 0 0 0 0 0 0 0 0 0 0 0 0 0 0 0 0 0 0 0 0 0
0 0 0 0 0 0 0 0 0 0 0 0 0 0 0 0 0 0 0 0 0 0 0 0 0 0 0 0 0 0 0 0 0 0 0 0 0 0 0 0 0 0 0 0 0 0 0 0 0
0 0 0 0 0 0 0 0 0 0 0 0 0 0 0 0 0 0 0 0 0 0 0 0 0 0 0 0 0 0 0 0 0 0 0 0 0 0 0 0 0 0 0 0 0 0 0 0 0
0 0 0 0 0 0 0 0 0 0 0 0 0 0 0 0 0 0 0 0 0 0 0 0 0 0 0 0 0 0 0 0 0 0 0 0 0 0 0 0 0 0 0 0 0 0 0 0 0
0 0 0 0 0 0 0 0 0 0 0 0 0 0 0 0 0 0 0 0 0 0 0 0 0 0 0 0 0 0 0 0 0 0 0 0 0 0 0 0 0 0 0 0 0 0 0 0 0
0 0 0 0 0 0 0 0 0 0 0 0 0 0 0 0 0 0 0 0 0 0 0 0 0 0 0 0 0 0 0 0 0 0 0 0 0 0 0 0 0 0 0 0 0 0 0 0 0
0 0 0 0 0 0 0 0 0 0 0 0 0 0 0 0 0 0 0 0 0 0 0 0 0 0 0 0 0 0 0 0 0 0 0 0 0 0 0 0 0 0 0 0 0 0 0 0 0
0 0 0 0 0 0 0 0 0 0 0 0 0 0 0 0 0 0 0 0 0 0 0 0 0 0 0 0 0 0 0 0 0 0 0 0 0 0 0 0 0 0 0 0 0 0 0 0 0
0 0 0 0 0 0 0 0 0 0 0 0 0 0 0 0 0 0 0 0 0 0 0 0 0 0 0 0 0 0 0 0 0 0 0 0 0 0 0 0 0 0 0 0 0 0 0 0 0
0 0 0 0 0 0 0 0 0 0 0 0 0 0 0 0 0 0 0 0 0 0 0 0 0 0 0 0 0 0 0 0 0 0 0 0 0 0 0 0 0 0 0 0 0 0 0 0 0
0 0 0 0 0 0 0 0 0 0 0 0 0 0 0 0 0 0 0 0 0 0 0 0 0 0 0 0 0 0 0 0 0 0 0 0 0 0 0 0 0 0 0 0 0 0 0 0 0
0 0 0 0 0 0 0 0 0 0 0 0 0 0 0 0 0 0 0 0 0 0 0 0 0 0 0 0 0 0 0 0 0 0 0 0 0 0 0 0 0 0 0 0 0 0 0 0 0
Wind_Speed
12 6 1 3 5 4 3 5 2 1 1 1 4 8 7 4 3 3 3 11 14 14 12 13 14 15 16 15 14 14 14 14 13 14 13 13 13 13 12 12 12 12 11 11 12 12 11 11 10
7 3 3 5 4 0 4 4 2 2 3 3 5 6 6 3 2 6 5 10 15 14 12 12 13 15 16 15 14 14 14 13 13 13 13 13 12 12 12 12 11 11 11 10 10 10 9 9 8
5 0 3 4 2 4 4 2 2 0 1 3 4 5 5 4 4 5 7 14 14 12 10 11 14 15 16 15 14 14 14 13 13 13 13 13 12 11 11 11 10 10 10 9 9 9 8 7 6
2 4 4 3 4 5 4 3 1 1 2 3 5 5 3 1 4 6 12 14 14 11 9 11 14 15 15 15 15 14 14 13 13 13 12 12 11 11 11 10 10 9 9 8 8 7 6 5 4
3 3 2 1 5 5 4 5 3 3 2 1 4 5 2 4 6 13 13 14 14 10 9 11 13 14 14 14 14 14 13 13 12 12 11 11 11 11 10 10 9 9 8 7 7 6 5 4 3
3 4 3 4 6 5 5 3 2 2 3 2 5 5 1 1 7 11 12 11 12 12 10 10 12 13 13 13 13 12 12 12 12 11 11 11 11 10 10 9 9 8 7 6 6 5 4 3 2
3 3 4 4 4 5 5 2 2 3 2 3 6 7 2 2 5 9 10 10 10 10 9 8 8 9 11 11 11 11 10 10 10 10 10 10 9 9 8 8 8 8 7 6 5 4 3 3 2
3 3 3 3 4 5 4 2 2 3 2 1 5 9 7 6 6 9 9 9 9 8 8 8 7 7 7 7 10 10 10 10 10 9 9 9 8 8 7 7 7 7 7 6 5 4 4 3 3
2 3 4 5 5 4 3 2 4 2 3 3 2 4 6 11 10 11 9 7 8 8 8 8 8 7 6 6 8 9 9 9 9 8 9 8 5 5 5 6 7 6 6 6 5 5 5 4 4
3 4 6 3 2 2 3 2 2 2 3 3 4 4 7 10 11 12 11 11 11 11 10 8 8 8 7 6 5 4 5 5 5 5 6 4 4 4 5 6 8 7 6 6 6 6 5 3 2
3 5 3 2 1 1 3 3 3 2 0 2 4 8 9 9 9 10 10 10 11 11 10 9 9 8 8 5 5 3 3 3 4 6 6 4 4 3 3 3 3 4 4 3 4 3 2 2 2
1 2 1 1 2 2 2 3 2 0 3 2 5 10 11 11 11 11 10 9 9 9 9 9 9 8 8 6 5 5 4 4 4 5 6 5 3 3 3 3 3 3 2 3 3 2 3 3 3
1 2 3 2 2 2 2 2 1 3 3 2 5 7 8 8 7 6 6 6 7 9 9 9 10 10 8 7 6 6 5 5 5 5 6 6 5 5 4 4 4 4 3 3 3 3 3 3 3
2 2 4 3 2 1 2 3 1 4 1 3 5 7 7 6 5 4 4 5 6 7 8 8 9 9 9 8 6 6 6 5 5 5 6 7 6 5 5 5 4 4 4 4 4 4 4 3 3
1 2 4 3 2 2 0 4 3 3 0 2 3 4 5 4 4 5 6 6 6 6 6 7 8 8 8 8 8 6 5 5 5 5 6 7 7 6 5 5 5 5 4 4 3 4 3 3 3
1 1 1 3 1 1 3 6 4 3 1 1 2 2 3 4 4 4 4 4 4 4 5 5 5 6 7 7 6 5 5 5 5 5 5 7 7 7 6 5 5 5 4 4 4 3 3 3 3
1 2 2 3 1 0 2 4 5 3 1 1 1 1 1 1 1 2 3 3 4 4 4 4 4 5 6 6 5 5 4 5 4 4 4 6 6 6 5 5 4 5 4 4 4 4 3 3 3
3 2 2 3 3 0 2 3 5 4 1 1 2 1 1 1 2 2 2 2 2 2 3 4 3 3 3 3 3 3 3 4 4 4 5 6 5 6 5 4 4 4 4 4 4 4 3 3 3
1 1 2 3 3 1 3 4 4 4 2 2 2 2 1 1 2 1 1 1 1 1 1 2 2 2 2 2 3 3 4 3 3 4 5 6 6 6 5 4 4 4 4 5 5 4 4 3 2
1 1 2 3 3 1 2 3 3 2 1 2 1 1 2 2 4 4 3 2 2 1 1 1 2 2 2 3 3 2 2 2 2 2 4 5 6 6 6 6 5 5 4 5 5 4 3 3 3
3 3 3 2 4 2 1 4 3 2 1 2 2 1 1 2 2 3 4 3 2 2 0 1 1 1 1 1 0 1 1 0 0 1 2 3 4 5 5 6 6 5 6 6 6 6 6 5 4
5 3 3 2 1 2 1 2 4 3 2 3 3 2 2 3 2 3 3 4 3 2 1 1 0 1 0 1 1 1 1 2 3 2 2 1 2 3 4 5 6 5 5 6 6 6 6 5 5
3 2 2 2 2 1 0 2 6 2 2 2 2 2 2 3 3 3 3 2 2 2 2 2 2 2 1 1 1 1 1 1 1 1 1 1 1 2 2 3 4 5 5 5 5 5 6 5 6
1 2 3 2 2 3 4 4 5 2 2 1 2 2 2 4 4 4 4 4 4 5 4 4 4 4 3 2 1 0 1 1 1 1 1 2 2 2 2 2 2 3 4 5 5 5 6 5 5
2 4 2 2 0 5 2 3 4 2 1 1 0 1 2 3 4 5 6 6 6 6 6 5 4 4 3 3 2 1 1 1 1 1 1 2 2 2 3 3 3 3 3 3 4 4 5 5 5
2 4 5 4 4 3 1 4 2 2 2 2 2 2 3 4 4 4 4 4 5 5 6 6 5 5 4 3 2 2 2 1 1 2 1 2 2 2 3 2 2 2 2 2 3 3 3 4 5
2 2 2 2 1 1 2 2 2 3 4 4 4 4 4 4 4 4 4 4 4 4 5 5 5 6 5 4 4 3 3 3 3 3 2 2 2 2 3 3 3 3 2 2 2 1 2 2 3
1 2 2 3 3 2 2 2 2 2 2 3 4 3 4 4 5 6 6 5 5 4 4 5 5 5 5 5 4 3 3 3 3 3 3 3 3 3 3 3 3 3 3 2 1 1 1 2 2
1 1 1 2 2 3 2 4 2 2 1 1 2 3 3 3 4 4 5 5 5 5 5 5 5 6 6 6 5 4 4 3 3 3 3 3 3 3 3 3 3 3 3 3 2 2 2 2 2
0 1 3 3 2 1 1 4 2 1 1 1 2 3 3 3 3 3 4 5 6 6 6 6 6 6 6 6 6 5 5 5 4 4 4 4 3 3 3 3 4 3 3 3 2 2 2 2 2
Wind_Direction
329 324 21 55 53 48 270 262 240 169 88 76 96 97 104 102 136 154 125 135 135 146 153 153 154 150 147 145 143 140 139 136 134 131 129 127 124 120 118 116 113 108 106 105 101 97 93 90 88
317 327 44 59 86 90 271 261 203 206 168 131 86 91 87 76 87 115 124 143 141 146 151 153 152 149 148 147 147 144 142 141 138 135 132 131 129 126 123 120 116 113 111 110 106 102 98 94 91
312 58 76 79 142 195 234 260 188 190 142 103 74 68 105 135 135 143 149 142 139 143 148 149 150 150 150 149 149 147 145 145 143 140 137 136 135 132 129 126 122 119 117 115 112 109 105 100 94
15 43 60 92 230 233 221 250 203 106 28 64 95 72 67 113 164 142 138 140 138 141 144 149 151 152 152 152 152 151 149 149 147 145 143 142 141 138 135 132 129 126 123 121 119 116 112 108 99
56 80 83 235 246 255 243 241 214 156 161 108 99 99 51 348 109 128 138 141 140 140 143 152 151 152 154 156 155 154 154 153 152 150 148 145 144 142 142 141 138 135 133 131 129 127 124 121 111
55 78 128 222 247 269 268 239 219 182 175 141 113 108 90 75 120 136 140 140 141 144 146 151 151 152 155 158 158 158 158 158 156 155 153 151 149 150 150 151 150 148 146 143 143 143 144 148 143
120 124 191 213 242 268 265 241 194 185 168 177 135 116 130 172 140 135 133 133 137 143 146 149 152 155 157 158 159 161 161 161 159 158 157 156 155 157 157 157 159 162 163 163 164 166 171 186 207
147 131 202 211 218 254 283 297 261 167 186 139 123 141 172 191 144 122 122 128 136 144 150 152 153 154 156 158 163 164 164 163 162 161 159 159 160 160 161 164 169 173 174 176 182 189 201 219 238
111 116 206 208 201 247 308 340 326 329 99 55 55 157 169 146 132 124 125 131 145 155 160 159 160 159 158 161 169 167 168 170 166 166 168 164 163 164 169 179 183 187 188 189 196 207 219 228 248
128 183 214 215 197 253 321 336 320 17 55 54 41 48 118 137 141 147 155 161 165 170 172 170 169 168 166 172 164 167 171 172 171 170 173 172 172 181 183 191 195 196 198 203 212 220 225 230 253
177 198 217 253 299 313 326 332 343 109 140 198 172 153 146 150 155 164 170 171 174 174 175 177 175 174 173 171 165 170 170 172 178 180 180 179 179 186 186 183 196 201 204 212 226 229 228 227 233
235 254 251 311 343 345 317 322 350 66 234 252 172 157 157 164 174 178 178 175 169 172 182 181 178 177 180 174 175 177 178 182 187 191 187 180 182 189 190 192 194 195 198 204 215 220 228 234 237
257 300 312 306 335 313 302 293 289 282 303 81 121 140 161 170 179 183 176 175 174 178 182 183 181 182 182 179 183 185 189 191 193 193 195 189 187 192 194 198 197 201 201 203 212 219 225 231 240
262 290 304 304 311 307 277 297 330 275 3 92 131 160 175 175 170 154 161 176 184 190 190 184 182 185 182 184 188 189 192 193 194 198 198 194 193 192 193 196 198 203 203 205 208 214 219 230 232
314 345 335 306 262 259 173 294 254 276 45 125 163 172 179 182 168 182 187 184 186 188 185 185 187 184 184 188 191 190 190 189 195 200 200 197 195 195 195 195 200 205 203 203 206 215 218 229 230
41 73 275 293 253 249 160 250 282 303 60 221 211 189 181 189 190 196 194 189 187 180 183 186 187 187 192 192 189 188 189 191 198 198 197 200 200 197 194 198 206 201 194 195 201 207 215 229 231
58 190 219 295 309 67 165 248 295 321 82 296 277 243 203 204 220 227 210 194 187 183 175 176 182 189 199 196 192 190 188 195 199 198 199 202 202 200 197 202 206 196 196 201 206 208 202 217 231
189 193 205 232 295 336 218 259 303 334 28 297 304 304 283 251 255 241 223 201 181 177 174 175 177 181 189 192 191 193 198 200 199 201 205 201 203 203 201 205 206 197 202 210 208 211 208 210 218
171 162 228 250 289 235 236 270 297 317 352 338 338 349 339 281 299 5 42 86 92 95 131 162 182 197 179 181 197 203 211 208 207 209 207 205 204 202 202 209 207 202 209 215 208 206 210 220 191
217 240 279 302 308 255 234 278 292 303 280 255 250 294 328 348 11 21 26 44 70 104 165 168 180 186 198 216 208 209 208 211 210 212 215 212 211 208 206 207 210 207 211 216 213 209 210 218 192
229 212 229 271 332 342 53 321 310 305 331 3 353 349 15 23 12 16 26 20 29 33 54 204 197 200 224 269 119 69 67 33 213 245 237 234 226 221 217 213 213 212 210 217 218 212 217 227 220
236 226 221 229 220 284 147 270 284 275 338 2 352 9 19 15 20 19 22 22 15 351 354 17 86 86 38 82 88 137 192 226 238 259 248 266 241 238 227 220 218 219 219 222 221 217 218 218 231
226 231 212 203 190 275 212 193 285 312 300 312 335 11 28 26 36 36 29 23 9 8 23 18 29 39 39 97 151 187 234 257 307 356 338 302 276 258 256 239 226 225 229 230 223 217 218 220 227
209 60 36 43 95 244 224 185 273 263 245 260 306 357 39 35 38 41 32 34 26 19 22 27 33 27 21 25 45 205 261 301 348 314 289 299 302 292 279 278 261 243 236 234 229 225 220 221 225
90 108 69 25 350 246 226 183 250 284 294 185 218 27 42 46 46 41 33 32 29 26 23 23 33 27 17 16 8 348 301 255 242 260 266 291 298 308 305 293 273 268 261 248 234 231 227 223 222
194 151 159 178 206 257 221 210 257 323 344 36 62 67 53 44 43 43 32 29 30 29 28 29 27 18 14 10 348 352 354 322 300 303 302 283 285 291 308 310 300 291 288 283 260 241 235 229 225
141 182 171 134 85 174 234 264 308 4 16 28 37 40 34 30 31 32 27 25 25 26 26 25 24 19 12 10 10 16 9 360 347 339 334 322 326 324 324 319 321 315 304 290 282 265 260 255 243
145 135 108 136 153 212 259 248 235 315 342 9 31 33 17 18 25 28 26 21 19 19 17 21 25 19 11 9 10 11 4 359 357 3 357 346 335 334 328 323 323 331 330 314 297 296 275 251 257
69 117 139 141 173 174 211 258 225 238 288 38 25 20 22 32 27 24 18 17 21 25 24 21 19 17 13 8 5 8 7 8 9 8 359 349 345 346 337 327 324 323 327 332 321 302 293 270 275
264 188 155 161 228 217 196 259 322 333 346 50 29 17 15 29 32 30 21 20 24 24 20 19 17 16 9 6 7 7 6 9 11 4 354 351 347 345 341 341 333 327 327 325 319 309 296 280 274